Theta_e
273 272 272 271 271 270 270 270 269 269 269 269 268 268 268 268 268 267 267 267 267 267 266 266 266 265 265 265 265 265 265 265 265 264 265 264 264 264 264 265 265 265 265 265 265 265 265 265 265 265 265 265 265 266 265 265 265 265 264 264 264 264 265
273 272 272 271 271 270 270 270 269 269 269 268 268 268 268 268 267 267 267 267 267 266 266 266 265 265 265 265 265 265 264 264 264 264 264 264 264 264 264 264 264 265 265 265 265 265 265 265 265 265 265 266 265 265 265 265 265 265 264 264 264 264 264
273 272 271 271 270 270 270 270 269 269 269 268 268 268 268 267 267 267 267 267 266 266 266 266 265 265 265 265 264 264 264 264 264 264 264 264 264 264 264 264 264 264 264 264 264 264 264 265 265 265 265 265 265 265 265 264 264 264 264 264 264 264 264
273 272 271 271 270 270 270 269 269 269 268 268 268 268 267 267 267 267 266 266 266 266 266 266 265 265 265 264 264 264 264 264 264 263 263 263 263 263 263 263 264 264 264 264 264 264 264 264 264 264 265 265 264 264 264 264 264 264 264 264 264 264 263
272 271 271 270 270 270 269 269 269 268 268 268 268 267 267 267 267 266 266 266 266 266 266 265 265 265 265 264 264 264 264 264 263 263 263 263 263 263 263 263 263 263 263 263 263 263 264 264 264 264 264 264 264 264 264 264 264 264 264 264 264 264 263
272 271 271 270 270 269 269 269 268 268 268 268 267 267 267 266 266 266 266 266 266 265 265 265 265 265 264 264 264 264 263 263 263 263 263 263 263 262 263 263 263 263 263 263 263 263 263 263 263 264 264 264 264 264 264 264 264 264 264 264 264 264 264
272 271 271 270 269 269 269 268 268 268 267 267 267 267 266 266 266 266 265 265 265 265 265 265 265 264 264 264 264 263 263 263 263 262 262 262 262 262 262 262 262 262 262 262 263 263 263 263 263 263 263 263 264 264 263 264 264 264 264 264 264 264 264
272 271 270 270 269 269 268 268 268 267 267 267 266 266 266 265 265 265 265 265 265 265 265 264 264 264 264 263 263 263 263 262 262 262 262 262 262 261 261 261 261 262 262 262 262 262 262 263 263 263 263 263 263 263 263 263 264 264 264 264 264 264 264
271 271 270 269 269 268 268 267 267 267 266 266 265 265 265 265 265 264 264 264 264 264 264 264 264 263 263 263 263 263 262 262 262 262 262 262 261 261 261 261 261 261 261 262 262 262 262 262 263 263 263 263 263 263 264 264 264 264 264 264 264 264 264
271 270 269 269 268 268 267 267 267 266 266 266 265 265 264 264 264 264 264 264 263 263 263 263 263 263 263 263 263 262 262 262 262 262 262 262 261 261 261 261 261 261 261 262 262 262 262 262 263 263 263 263 263 263 263 263 263 263 263 264 264 264 264
270 269 269 268 268 267 267 267 267 266 266 266 266 266 265 265 264 264 264 264 264 263 263 263 263 263 263 263 263 263 262 262 262 262 262 262 262 262 261 261 261 261 261 261 262 262 262 262 263 263 263 263 263 263 263 263 263 263 263 264 264 264 264
269 269 268 268 268 267 267 266 266 266 266 266 267 267 267 266 266 265 265 265 265 264 264 263 263 263 263 263 263 263 263 263 262 262 262 262 262 262 262 262 261 261 261 261 261 262 262 262 262 262 262 263 263 263 263 263 263 263 263 263 264 264 264
269 268 268 268 267 267 266 266 266 266 266 266 267 267 267 267 267 266 266 266 265 265 265 264 264 264 263 263 263 263 263 263 263 263 262 262 262 262 262 262 262 262 262 261 261 261 262 262 262 262 262 262 262 262 263 263 263 263 263 263 264 264 264
268 268 268 267 267 266 266 266 266 265 265 266 266 267 267 267 267 267 267 267 266 266 265 265 265 264 264 264 263 263 263 263 263 262 262 262 262 262 262 262 263 263 263 262 262 262 262 262 262 262 262 262 262 262 262 263 263 263 263 263 263 264 264
268 267 267 267 266 266 265 265 265 265 265 266 266 266 267 267 267 267 267 266 266 266 266 265 265 265 265 264 264 263 263 263 262 262 262 262 261 262 262 262 262 262 262 262 262 262 262 262 262 262 262 262 262 262 262 263 263 263 263 263 263 263 263
267 267 267 266 266 265 265 265 265 264 265 265 266 266 267 266 266 266 266 266 266 265 265 265 265 265 264 264 264 263 263 263 262 262 262 261 261 261 261 261 261 262 262 262 262 262 262 262 262 262 262 262 262 262 262 262 262 263 263 263 263 263 263
266 266 266 266 265 265 264 264 264 264 264 265 265 266 266 266 266 265 265 265 265 264 264 264 264 264 264 263 263 263 263 263 263 262 262 261 261 261 261 260 261 261 261 262 262 262 262 263 263 263 263 264 264 264 263 263 263 263 263 263 263 263 263
266 266 265 265 265 264 264 264 264 263 263 264 265 265 265 265 265 265 265 264 264 264 264 264 264 263 263 263 262 262 263 263 263 263 263 262 261 261 261 261 261 261 261 261 262 262 262 263 263 263 264 264 264 264 264 263 263 263 263 263 263 263 263
265 265 265 265 264 264 263 263 263 263 262 263 264 265 265 265 264 264 264 264 264 264 263 263 263 263 263 262 262 262 263 263 263 263 263 263 262 262 262 261 261 261 261 261 261 262 262 262 263 263 263 263 263 262 262 262 262 262 262 262 262 262 262
264 264 264 264 264 263 263 262 262 262 262 262 263 264 264 264 264 264 263 263 263 263 263 263 263 263 263 263 263 263 263 263 264 264 263 263 263 263 262 262 262 262 261 261 262 262 262 262 262 262 262 262 262 262 261 261 261 261 261 261 261 261 261
264 263 263 263 263 263 262 262 262 262 262 262 262 263 264 264 264 263 263 263 263 263 263 263 263 263 263 262 263 263 264 264 264 264 264 264 263 263 263 263 263 262 262 262 262 262 262 262 262 261 261 261 261 261 260 260 260 260 260 260 260 260 261
263 263 262 262 262 262 262 262 262 262 262 262 262 263 263 264 263 263 263 263 263 263 263 263 262 262 262 262 262 263 263 264 264 265 265 265 265 264 264 264 263 263 262 262 262 262 261 261 261 261 260 260 260 260 260 260 260 260 260 259 259 259 259
262 261 261 261 261 261 261 261 261 262 263 262 262 262 262 263 263 263 263 263 263 263 263 263 262 262 262 262 263 263 263 264 265 265 265 265 265 264 264 264 263 262 261 261 261 261 261 260 260 260 260 260 260 260 259 259 259 259 258 258 257 257 257
261 261 260 260 260 261 261 260 261 262 263 262 262 262 261 262 263 263 263 263 263 263 263 263 263 263 263 263 263 263 264 264 264 264 264 264 264 263 262 262 262 261 260 260 260 260 260 260 260 260 259 259 259 258 258 257 257 257 257 257 256 256 256
261 261 260 260 260 260 260 260 260 261 262 262 262 261 261 261 262 263 263 263 263 263 263 263 263 263 263 263 263 263 263 264 263 263 263 263 262 261 261 261 260 260 259 259 259 259 259 259 259 258 258 258 257 257 256 256 255 255 255 255 255 255 255
261 261 260 260 260 260 260 260 259 260 261 262 261 261 261 261 261 262 262 262 262 262 262 262 262 262 262 262 262 262 262 262 262 262 262 261 261 260 260 259 259 259 258 258 258 258 258 258 258 257 257 256 256 255 255 255 255 255 255 255 255 255 255
260 260 260 260 260 260 259 259 259 259 260 261 261 261 261 261 261 261 261 261 261 261 261 261 261 261 261 261 261 261 261 262 261 261 261 260 260 259 259 258 258 258 257 257 257 257 257 257 256 256 255 255 255 255 255 255 254 254 254 254 254 255 255
260 260 260 260 260 260 260 260 259 259 260 261 262 262 262 262 261 261 261 261 261 261 261 261 261 260 260 260 261 261 261 261 261 260 260 260 259 259 258 258 257 256 256 256 256 256 256 255 255 255 254 254 254 254 254 254 254 254 254 254 254 254 254
260 260 260 259 259 260 260 260 260 261 262 262 262 262 262 262 262 262 262 262 262 262 262 261 261 260 260 260 260 260 260 260 260 260 259 259 258 258 258 257 256 256 256 255 255 255 255 254 254 254 254 254 253 253 253 253 253 253 253 253 253 254 254
260 260 260 260 260 260 261 261 262 262 263 263 263 263 263 263 263 263 263 263 263 263 261 261 261 261 261 260 260 260 260 260 260 259 259 258 258 257 257 256 256 255 255 255 255 254 254 254 253 254 253 253 253 252 252 252 252 252 252 253 253 254 254
261 262 262 262 262 262 262 263 263 263 263 264 264 264 264 264 264 264 264 264 263 262 262 261 261 261 261 260 260 260 260 259 259 259 258 258 257 256 256 255 255 255 255 254 254 253 253 253 253 253 252 252 252 252 251 251 252 252 252 252 253 253 254
262 263 264 264 264 264 264 264 264 264 264 264 264 264 264 264 264 264 264 263 262 262 262 261 261 262 261 261 260 260 259 259 258 258 257 257 257 256 255 255 255 254 254 253 253 253 252 252 252 251 251 251 251 251 251 251 251 252 252 252 253 253 253
262 263 263 263 263 263 263 263 263 263 262 262 262 262 262 262 261 262 262 261 261 261 261 261 261 261 261 260 260 259 258 258 258 257 257 256 256 256 255 255 254 254 253 252 252 252 252 251 251 250 250 250 250 250 250 250 251 251 251 252 252 253 253
260 260 260 260 260 260 260 260 260 260 259 259 259 259 259 259 259 260 261 261 261 261 261 261 260 260 259 259 259 258 257 257 256 256 256 255 255 255 255 254 253 253 252 252 251 251 251 250 250 250 250 250 250 250 250 250 250 250 251 251 252 252 252
258 258 258 258 257 258 258 258 258 257 257 257 257 258 258 259 260 260 260 260 260 259 259 259 258 258 258 257 257 256 256 256 255 255 255 254 254 254 254 253 252 252 251 251 250 250 250 250 250 249 249 249 249 249 249 249 250 250 250 250 251 251 251
257 257 257 256 256 256 256 256 256 256 256 256 257 259 259 259 259 259 259 258 258 257 257 257 256 256 256 256 255 255 255 255 254 254 254 254 254 253 253 252 251 251 250 250 250 250 250 249 249 249 249 249 249 249 249 249 249 249 249 249 250 250 251
Wind_Speed
30 27 25 23 22 21 20 20 19 19 18 19 20 20 20 19 20 20 21 20 20 20 19 19 20 20 20 20 20 20 19 19 18 18 20 21 21 22 22 23 25 22 20 22 21 20 21 20 20 20 21 22 23 22 22 20 20 20 20 20 19 19 20
30 27 25 23 22 21 21 20 19 19 19 20 21 21 21 20 21 22 22 21 21 21 20 20 21 21 20 20 21 22 21 20 20 20 22 23 22 23 24 23 25 24 22 22 21 20 21 22 22 24 23 23 23 23 22 22 22 21 20 20 20 20 20
30 28 25 23 22 21 21 20 20 20 20 21 22 22 22 21 21 22 23 23 23 22 21 21 21 21 21 20 21 23 23 22 22 22 23 25 24 25 26 24 24 25 24 23 21 21 22 23 23 23 22 22 22 22 22 22 22 22 21 21 21 21 21
31 28 26 24 23 22 21 20 20 20 21 22 23 23 23 23 23 23 23 24 23 23 22 22 22 22 21 21 22 24 24 23 23 23 23 24 24 24 25 25 25 25 24 23 22 21 22 24 22 21 21 21 22 22 22 22 23 23 22 22 22 23 22
30 28 26 25 24 23 22 21 20 21 21 22 22 23 23 23 23 24 24 24 24 24 24 24 24 24 22 22 24 26 26 25 25 25 24 23 22 22 23 23 23 24 24 24 23 22 22 22 21 20 21 21 22 22 22 22 22 22 23 24 24 24 23
31 29 27 26 25 24 23 21 21 21 22 22 22 22 23 23 23 24 24 25 25 25 25 26 26 25 24 24 26 28 27 27 26 26 27 26 24 22 22 22 22 22 22 23 24 22 22 22 21 20 20 20 21 22 22 22 23 23 23 23 23 22 22
30 29 28 26 25 25 24 22 21 22 22 22 22 22 22 23 23 23 24 25 25 26 27 27 27 27 27 27 28 29 30 31 30 28 29 30 27 24 23 23 22 21 22 23 23 22 22 22 21 21 21 21 20 21 22 22 23 22 21 20 21 21 21
29 28 27 26 26 26 25 24 23 24 23 22 22 23 23 23 23 23 24 25 26 26 27 28 29 31 33 34 34 35 36 37 36 33 30 27 23 22 22 22 21 21 21 21 22 22 22 22 22 21 21 21 21 21 21 20 21 21 20 19 21 21 21
28 27 27 27 26 26 26 26 27 27 26 24 25 27 27 27 26 26 26 26 27 28 28 29 32 35 38 39 39 39 39 40 39 37 34 29 23 20 20 20 21 21 21 21 21 21 20 21 21 20 20 21 21 21 20 19 20 21 21 21 23 22 21
27 27 27 27 27 27 28 28 30 30 29 26 26 28 29 30 31 31 30 31 33 34 33 34 37 38 39 39 40 40 39 39 38 37 37 35 29 22 19 18 19 21 21 21 21 21 20 20 20 20 20 21 21 20 19 19 19 21 22 22 22 21 19
27 27 28 27 27 28 29 30 31 31 28 25 24 25 26 28 31 32 34 35 37 38 38 38 39 40 39 38 39 39 37 36 36 36 36 36 34 29 24 22 20 20 22 22 23 22 21 20 21 21 21 22 21 20 19 19 20 21 21 20 18 17 16
27 28 27 27 28 29 29 31 31 29 26 24 24 24 23 24 26 29 32 35 38 41 40 35 33 35 37 38 38 38 37 37 37 37 37 37 36 35 34 31 27 25 23 22 23 24 23 22 21 20 21 22 21 21 21 21 21 21 21 21 19 17 17
27 27 27 27 28 29 30 31 30 29 25 23 24 25 24 24 24 25 27 27 29 33 34 32 29 29 30 33 35 36 37 38 37 37 37 37 35 35 36 37 37 35 30 26 24 24 25 25 24 24 24 22 21 22 22 22 23 22 22 23 21 21 21
27 27 27 27 28 29 30 31 31 29 25 23 25 25 25 25 25 26 26 25 24 25 27 30 30 27 25 26 29 31 34 36 36 36 37 37 35 34 33 34 35 35 34 32 29 27 26 26 26 26 26 23 21 22 23 23 23 23 23 24 23 23 23
27 27 27 27 28 29 31 31 30 28 25 24 25 25 25 25 25 26 26 26 26 26 26 26 26 25 24 22 22 25 29 32 34 34 35 36 36 35 34 33 32 30 30 32 31 31 30 30 29 27 25 24 23 24 25 25 25 25 25 26 26 25 23
26 27 27 27 28 30 31 31 30 27 24 24 25 24 24 23 24 24 25 25 25 24 25 24 22 22 21 21 21 23 24 27 29 32 35 35 36 36 35 36 37 35 35 37 38 39 39 39 37 35 33 34 33 34 35 32 29 27 25 25 24 23 22
27 27 27 28 29 30 31 31 30 27 24 24 23 23 22 21 21 22 23 23 23 23 23 23 23 22 21 22 25 27 26 27 28 29 31 33 35 35 35 37 39 39 39 40 40 41 42 42 41 39 38 37 36 36 34 28 24 21 20 19 17 16 18
26 26 27 28 29 30 30 31 29 26 24 24 23 22 22 20 21 22 22 21 21 21 20 21 24 25 24 26 29 30 28 29 29 28 27 27 29 32 33 35 38 40 40 39 37 37 37 38 38 37 36 34 32 30 25 19 14 11 13 16 14 14 17
25 26 27 28 29 29 29 30 29 27 25 24 22 22 21 20 20 22 21 19 19 19 19 19 22 24 26 29 30 28 28 29 29 29 28 26 25 27 30 32 35 37 38 38 39 37 35 35 34 33 33 32 31 30 28 23 19 14 14 16 18 17 16
25 26 27 27 28 28 28 29 30 28 25 24 23 22 21 20 20 22 22 19 19 20 21 21 21 23 25 27 28 27 29 31 30 30 30 27 24 25 27 26 27 32 37 39 39 39 38 36 33 31 32 34 33 31 30 27 25 22 20 19 19 19 17
24 25 26 27 28 29 30 30 30 29 26 25 24 23 22 22 23 23 23 21 19 20 21 21 22 21 21 23 25 26 28 29 29 30 29 27 28 30 32 31 27 27 30 32 31 30 28 25 21 20 25 29 28 27 26 25 25 25 24 21 20 19 21
23 24 25 26 28 29 30 31 30 29 26 25 25 23 22 23 24 24 23 22 21 20 21 22 22 21 20 21 23 25 27 27 27 27 27 27 28 31 33 33 29 21 19 20 19 16 15 14 13 15 18 20 21 21 23 26 27 27 27 26 23 21 21
23 22 21 22 25 28 29 29 29 28 25 24 25 24 23 24 25 24 24 25 23 22 21 22 23 23 23 23 23 25 26 26 24 25 27 26 23 19 16 18 19 15 12 12 11 11 12 13 14 15 16 17 18 18 20 24 26 28 29 29 28 27 26
19 17 15 17 21 25 27 28 28 28 26 24 24 23 22 23 24 25 25 26 25 23 22 23 24 23 22 23 25 27 28 28 26 26 25 19 12 10 10 11 12 12 11 10 10 11 14 15 15 16 17 17 17 17 19 22 24 27 29 30 31 31 31
14 15 15 15 17 20 24 26 27 27 26 24 22 22 21 22 23 24 24 25 25 23 22 23 24 24 24 25 26 26 25 23 21 20 19 15 10 9 10 12 13 13 12 12 12 13 14 15 15 15 15 15 16 18 20 20 19 20 22 24 25 26 28
13 14 15 15 15 18 22 25 26 26 26 24 21 21 21 20 22 24 24 26 26 25 26 27 27 28 29 28 26 23 20 16 15 16 17 17 15 13 12 14 15 13 12 12 13 13 14 14 13 12 13 15 19 20 18 16 14 14 15 16 17 18 21
14 14 14 15 15 17 20 22 23 24 25 23 21 21 21 21 22 24 25 28 30 30 31 32 31 31 31 28 24 22 20 17 15 15 14 13 13 16 17 17 16 14 14 13 13 13 13 13 12 13 14 16 17 17 16 16 15 14 15 14 14 16 19
15 16 17 16 15 15 16 17 19 23 25 23 22 22 22 23 25 26 27 29 30 30 31 31 31 30 28 24 20 19 18 16 13 14 16 18 18 20 22 20 18 16 14 13 12 12 13 13 13 14 14 14 14 15 15 15 13 13 14 14 13 16 19
19 20 22 21 19 17 15 16 20 25 26 24 23 23 23 25 27 28 29 28 27 28 29 29 27 25 22 19 18 18 17 15 13 14 18 23 25 24 23 21 19 16 13 12 12 12 12 12 12 12 12 13 14 14 13 12 12 13 13 14 15 17 19
24 24 25 26 26 25 24 24 27 29 27 24 24 24 25 27 28 29 30 29 29 30 27 21 18 19 18 16 16 16 16 15 15 14 15 19 22 24 23 21 19 16 15 15 15 14 12 12 11 12 13 13 13 12 11 11 12 13 14 15 16 18 18
25 25 25 27 30 32 32 31 31 29 27 25 24 24 26 27 27 28 26 23 23 24 21 16 16 18 17 16 16 16 16 15 15 15 14 14 15 17 19 19 17 16 16 16 15 13 12 12 12 13 14 13 12 12 12 12 13 14 15 16 17 17 17
23 24 24 26 28 28 27 24 22 22 23 24 23 22 22 22 23 24 22 16 11 12 13 14 17 18 17 15 16 17 16 15 15 15 15 14 12 13 15 17 17 16 16 15 13 12 12 12 12 12 12 11 11 11 12 13 13 14 15 15 16 17 17
21 22 22 22 23 23 23 22 21 21 22 23 22 21 20 20 22 23 22 19 16 15 15 15 17 17 17 16 16 16 16 16 17 17 16 15 15 13 13 14 16 17 18 16 14 12 12 12 11 10 10 10 11 11 12 13 13 14 14 15 16 16 16
22 23 23 22 22 23 24 24 24 23 22 22 21 21 20 21 23 23 22 20 19 16 14 13 14 14 15 15 16 16 15 15 17 19 17 15 15 16 15 16 18 18 18 16 13 11 11 11 10 9 10 10 10 11 12 13 13 13 14 14 15 15 15
20 22 24 23 22 23 23 23 22 22 21 19 19 20 20 19 19 18 16 15 15 14 12 13 13 12 13 14 15 16 16 16 17 19 18 16 16 18 19 19 18 17 15 13 12 12 11 10 10 10 10 10 11 11 12 13 13 13 13 14 15 16 16
16 17 18 19 20 22 22 20 19 19 18 18 18 18 17 15 13 11 10 11 13 13 13 14 14 13 12 12 13 14 16 17 17 18 20 20 19 19 18 18 17 15 13 11 11 12 11 9 9 9 9 10 11 12 12 13 13 13 14 15 16 16 17
Wind_Direction
216 214 212 212 212 214 216 217 218 220 222 227 232 235 238 239 238 238 238 240 240 238 238 239 240 242 242 243 244 244 245 245 245 249 255 256 257 256 255 257 257 259 268 271 268 268 272 274 275 275 277 280 282 283 284 282 282 282 281 281 283 284 285
214 213 212 212 213 215 218 219 220 221 223 228 232 235 237 238 237 238 239 239 239 238 238 239 240 241 242 242 242 242 242 245 247 250 254 255 256 257 258 256 255 257 264 270 268 267 271 273 274 275 277 279 280 281 282 281 281 281 280 280 280 282 285
215 215 214 213 215 216 218 220 221 222 224 228 232 235 237 238 237 238 239 239 240 239 239 240 240 241 241 240 241 242 241 244 248 250 253 254 254 256 259 256 254 255 260 266 268 268 272 275 274 274 275 277 278 280 281 280 281 281 279 278 278 278 282
216 217 217 216 216 218 219 220 221 223 226 229 233 235 237 239 239 239 239 240 240 239 239 240 241 241 240 239 243 245 244 244 247 248 250 252 252 253 257 257 254 253 256 262 267 267 270 273 272 272 274 277 279 279 278 278 279 280 278 278 279 278 278
215 217 217 218 219 220 221 221 222 224 227 231 234 236 239 239 239 239 240 240 240 240 240 240 241 242 241 242 246 248 245 244 246 248 248 251 252 253 254 254 253 252 253 257 262 265 267 269 269 270 272 274 277 279 278 277 277 278 278 280 281 277 276
216 218 220 222 223 223 223 223 224 225 229 232 235 237 239 240 239 240 239 240 241 241 241 241 241 242 241 241 246 246 244 244 245 245 247 249 251 253 254 253 252 252 252 254 258 262 265 266 267 268 270 272 273 275 277 278 279 279 279 279 279 278 277
218 222 224 226 227 228 228 226 224 226 229 232 235 237 239 239 239 240 241 242 243 242 242 242 240 241 242 242 244 244 244 246 247 245 247 250 250 250 251 251 251 250 251 253 255 257 260 264 265 265 267 270 271 271 271 274 278 280 280 278 278 281 282
220 224 227 228 230 232 232 229 227 229 230 232 235 237 238 238 239 241 243 244 245 243 242 241 241 244 248 249 250 250 250 251 251 249 249 249 247 245 245 245 246 247 247 248 251 253 256 260 263 263 265 267 268 267 265 267 272 277 280 282 282 283 283
224 226 228 230 232 233 233 231 232 234 235 237 240 244 245 245 244 245 245 245 247 246 244 244 246 250 254 256 257 256 256 256 255 252 252 249 243 239 238 239 241 243 244 246 248 250 251 254 258 258 261 263 262 262 264 267 270 274 279 285 286 283 282
225 227 230 231 233 234 233 234 237 241 243 243 246 251 254 254 252 250 249 251 252 252 250 250 252 255 258 260 260 259 257 256 253 251 251 251 246 238 233 234 236 238 241 244 246 247 248 250 253 252 255 259 260 261 264 266 268 272 279 285 286 284 282
226 229 232 234 235 236 237 239 243 247 248 245 246 249 253 255 255 254 254 255 256 255 253 254 256 259 261 261 260 258 255 253 250 248 248 247 245 240 234 233 234 235 238 241 244 246 246 247 250 250 252 258 261 261 262 262 265 271 277 279 279 280 281
228 231 234 237 238 239 240 244 248 250 248 245 246 248 250 252 253 252 253 254 255 254 252 251 253 256 258 259 259 258 256 254 252 251 249 247 245 243 241 239 237 235 233 234 239 244 245 246 249 250 250 253 257 260 261 262 263 265 267 269 269 270 273
231 234 237 239 240 241 243 246 250 250 246 246 248 249 250 252 252 252 252 252 252 250 248 248 249 250 253 256 257 256 254 253 253 253 251 248 246 246 245 245 245 243 240 235 236 241 244 245 248 252 254 254 255 258 260 259 260 260 261 263 262 263 268
234 237 239 242 243 244 245 249 252 252 248 246 249 251 253 254 254 254 255 255 252 249 250 252 251 249 249 252 252 249 246 247 250 252 250 248 246 245 245 247 248 249 249 246 244 245 246 246 246 250 254 254 251 252 253 253 255 256 257 260 261 263 268
238 240 243 244 245 245 247 250 253 252 248 247 250 253 255 255 255 256 256 256 255 255 256 255 252 250 250 250 249 244 241 244 248 250 249 247 246 246 245 245 246 247 248 249 249 250 252 252 250 250 252 252 251 250 250 250 252 255 258 262 265 267 268
241 243 244 245 246 246 249 252 253 251 247 248 251 254 256 256 256 257 258 258 257 256 255 253 250 250 251 249 246 242 241 245 248 248 247 245 245 246 245 246 248 250 250 251 252 253 256 258 258 258 258 258 257 256 255 254 254 255 258 261 264 264 264
242 244 245 246 247 248 249 252 253 251 249 250 252 254 256 256 256 257 258 258 257 256 254 252 249 248 248 248 247 245 246 248 248 246 244 242 243 244 243 247 252 257 259 259 258 258 260 262 264 264 264 263 262 261 260 256 250 248 250 252 256 259 260
244 246 247 248 249 249 250 253 255 254 252 252 252 253 255 255 257 258 258 258 258 257 255 253 251 249 246 246 248 249 251 252 250 249 246 243 242 240 239 245 252 258 262 265 264 263 262 263 264 265 266 268 269 268 268 261 249 245 248 251 255 262 265
245 246 248 249 250 250 251 254 257 257 256 254 252 253 254 254 255 257 257 258 259 258 257 255 254 251 246 246 250 251 251 252 251 248 246 245 245 242 240 244 250 253 258 263 265 265 266 265 265 267 269 270 271 270 269 266 262 258 254 257 261 263 267
244 245 247 249 251 253 253 255 259 261 260 257 254 253 253 253 252 254 256 257 257 258 258 256 255 254 249 246 249 253 255 255 253 248 244 241 240 242 243 244 245 248 252 257 260 262 264 267 269 269 269 270 271 272 272 271 268 264 259 259 262 264 264
244 246 249 251 254 257 258 259 261 263 263 260 256 254 253 252 251 252 255 257 257 257 257 256 255 255 250 245 249 256 259 258 257 255 250 241 236 242 248 247 242 242 246 249 252 254 256 260 261 261 264 267 269 270 270 270 270 269 267 263 261 262 265
246 248 252 255 258 260 261 262 263 264 264 262 259 256 253 252 252 251 252 254 255 254 255 255 254 253 250 246 249 257 260 260 261 260 258 254 251 254 255 250 244 239 236 236 238 239 239 242 246 250 256 260 261 262 265 267 269 270 271 269 266 263 263
248 250 253 256 258 260 262 263 264 266 266 264 263 261 256 253 253 252 251 251 253 254 255 255 255 255 255 251 250 254 261 267 268 264 264 267 265 258 250 243 236 229 222 222 225 228 232 238 243 246 249 252 256 259 263 266 268 268 269 271 271 268 265
246 246 249 252 255 260 263 264 267 270 270 268 268 265 259 255 254 253 252 251 253 255 255 256 256 256 254 251 252 258 267 274 274 269 268 270 260 237 230 229 221 213 213 221 227 235 242 245 245 249 253 255 257 261 265 268 271 272 274 277 277 274 270
240 241 245 249 252 257 262 265 267 271 273 273 271 267 260 255 254 254 253 253 254 255 255 256 257 257 257 259 263 269 274 276 274 269 266 261 249 239 240 238 233 228 230 236 238 241 245 247 247 251 253 254 259 267 272 273 274 275 278 281 281 276 272
239 241 244 248 252 257 263 266 268 271 275 277 273 266 260 255 253 252 252 252 254 255 256 258 259 261 264 268 271 271 270 266 263 260 260 257 252 245 239 238 239 236 231 235 240 242 244 247 248 251 253 259 268 274 276 275 273 272 273 274 273 271 268
241 240 241 246 251 255 261 266 267 268 273 276 273 268 266 263 261 258 255 255 255 256 257 259 260 262 264 265 265 264 261 259 257 254 251 247 242 240 242 243 243 241 238 241 245 248 251 253 255 259 264 268 271 273 274 273 270 269 269 267 265 265 264
242 242 244 246 250 255 260 263 261 264 272 277 275 271 270 268 267 264 261 259 259 259 260 261 261 262 261 258 256 256 254 251 246 242 242 243 244 247 250 250 249 248 246 246 245 247 254 259 262 265 269 271 269 270 270 267 260 259 264 264 260 260 262
252 253 255 254 254 256 256 256 261 271 280 282 277 270 266 266 267 267 267 267 266 263 261 259 258 256 251 246 245 244 242 239 235 236 242 245 246 248 252 252 251 247 242 241 242 246 253 259 263 268 271 270 266 264 261 256 252 255 258 257 253 254 257
255 257 261 262 264 265 265 268 276 282 281 277 273 268 264 264 267 267 267 270 270 263 255 249 247 245 237 232 234 235 235 235 234 233 237 241 243 245 247 248 246 242 240 245 250 254 258 261 264 269 270 265 260 259 258 255 252 253 252 250 250 252 255
257 258 259 260 265 269 270 273 279 281 276 271 270 268 266 269 270 269 268 270 265 255 244 235 237 240 234 226 228 233 235 236 235 233 234 236 237 237 238 239 238 237 242 249 253 257 260 263 264 264 263 259 257 261 263 259 254 251 248 247 248 251 255
262 264 265 265 267 271 273 275 278 278 276 274 275 275 278 281 280 279 282 288 278 255 241 236 238 240 236 228 228 232 234 233 233 234 234 232 229 227 229 233 236 240 247 252 255 257 259 259 256 253 253 255 257 260 260 258 255 251 248 249 251 253 255
272 272 274 276 277 278 279 282 284 285 283 282 284 287 290 289 284 280 281 281 274 262 253 245 241 240 240 237 235 235 234 232 234 237 235 232 231 230 228 233 240 249 256 258 256 253 250 248 245 244 249 254 254 255 257 258 258 256 254 255 256 255 256
288 287 287 285 283 281 281 281 284 285 284 284 286 288 289 286 282 278 273 266 260 256 254 251 248 246 246 246 245 242 237 233 235 237 235 232 233 236 239 244 250 254 256 254 249 240 235 236 237 240 246 251 253 255 258 258 257 257 255 254 256 258 261
292 294 295 293 290 290 289 288 288 288 287 285 284 285 285 281 275 271 265 256 251 251 253 255 256 255 254 251 247 243 240 238 237 238 236 235 237 242 246 249 250 248 244 240 236 233 230 232 236 239 243 250 255 257 258 258 258 257 258 259 261 263 265
288 291 292 291 291 293 294 293 291 287 284 283 282 283 282 276 266 260 258 253 251 253 253 252 253 254 253 251 248 244 242 241 240 241 242 242 242 244 244 243 240 236 231 225 227 231 231 231 235 239 241 248 253 254 254 256 258 259 260 262 262 263 265